When you browse on this site, cookies collect data to enhance your experience and personalize the content and advertising you see.
Visit our Privacy Policy to learn more. By continuing to use the site, you agree to this use of cookies and data.
  • In Hungary
  • List of Countries
  • For 7 days
  • Water Temperature
  • Weather Map
  • News
  • Weather Widgets
  • user-avatar
    Login

    Hourly Weather Barki Saria

    Today, 20 February, Thursday

    Time Temperature Precipitation Wind Pressure Humidity
    00:00 +21°C° 0 mm 1 mps 734 mmHg 27%
    01:00 +20°C° 0 mm 1 mps 733 mmHg 28%
    02:00 +20°C° 0 mm 1 mps 733 mmHg 29%
    03:00 +20°C° 0 mm 1 mps 733 mmHg 30%
    04:00 +19°C° 0 mm 1 mps 733 mmHg 31%
    05:00 +19°C° 0 mm 1 mps 733 mmHg 33%
    06:00 +18°C° 0 mm 1 mps 733 mmHg 38%
    07:00 +20°C° 0 mm 1 mps 733 mmHg 35%
    08:00 +21°C° 0 mm 1 mps 734 mmHg 33%
    09:00 +23°C° 0 mm 2 mps 734 mmHg 30%
    10:00 +25°C° 0 mm 2 mps 734 mmHg 27%
    11:00 +27°C° 0 mm 2 mps 734 mmHg 23%
    12:00 +29°C° 0 mm 2 mps 735 mmHg 18%
    13:00 +30°C° 0 mm 2 mps 734 mmHg 17%
    14:00 +31°C° 0 mm 1 mps 733 mmHg 15%
    15:00 +29°C° 0 mm 0 mps 732 mmHg 13%
    16:00 +30°C° 0 mm 1 mps 732 mmHg 15%
    17:00 +29°C° 0 mm 1 mps 732 mmHg 16%
    18:00 +28°C° 0 mm 2 mps 732 mmHg 18%
    19:00 +26°C° 0 mm 2 mps 732 mmHg 21%
    20:00 +24°C° 0 mm 2 mps 733 mmHg 25%
    21:00 +23°C° 0 mm 2 mps 733 mmHg 28%
    22:00 +21°C° 0 mm 2 mps 733 mmHg 31%
    23:00 +21°C° 0 mm 2 mps 733 mmHg 35%

    Tomorrow, 21 February, Friday

    Time Temperature Precipitation Wind Pressure Humidity
    00:00 +21°C° 0 mm 1 mps 734 mmHg 38%
    01:00 +21°C° 0 mm 1 mps 733 mmHg 39%
    02:00 +20°C° 0 mm 1 mps 733 mmHg 40%
    03:00 +18°C° 0 mm 0 mps 732 mmHg 41%
    04:00 +20°C° 0 mm 1 mps 733 mmHg 41%
    05:00 +19°C° 0 mm 1 mps 733 mmHg 41%
    06:00 +18°C° 0 mm 2 mps 733 mmHg 40%
    07:00 +20°C° 0 mm 2 mps 734 mmHg 39%
    08:00 +23°C° 0 mm 2 mps 735 mmHg 37%
    09:00 +24°C° 0 mm 3 mps 735 mmHg 35%
    10:00 +27°C° 0 mm 3 mps 735 mmHg 31%
    11:00 +29°C° 0 mm 4 mps 735 mmHg 27%
    12:00 +32°C° 0 mm 4 mps 735 mmHg 23%
    19:00 +29°C° 0 mm 3 mps 733 mmHg 25%
    20:00 +27°C° 0 mm 3 mps 734 mmHg 27%
    21:00 +26°C° 0 mm 3 mps 734 mmHg 29%
    22:00 +25°C° 0 mm 3 mps 735 mmHg 32%
    23:00 +25°C° 0 mm 3 mps 735 mmHg 34%

    Day after tomorrow, 22 February, Saturday

    Time Temperature Precipitation Wind Pressure Humidity
    00:00 +24°C° 0 mm 2 mps 735 mmHg 36%
    01:00 +24°C° 0 mm 2 mps 735 mmHg 38%
    02:00 +23°C° 0 mm 2 mps 735 mmHg 39%
    03:00 +23°C° 0 mm 2 mps 734 mmHg 41%
    04:00 +21°C° 0 mm 2 mps 734 mmHg 41%
    05:00 +21°C° 0 mm 2 mps 734 mmHg 42%
    06:00 +21°C° 0 mm 2 mps 734 mmHg 42%
    07:00 +23°C° 0 mm 2 mps 735 mmHg 40%
    08:00 +24°C° 0 mm 2 mps 736 mmHg 37%
    09:00 +25°C° 0 mm 2 mps 737 mmHg 34%
    10:00 +25°C° 0 mm 3 mps 736 mmHg 35%
    11:00 +25°C° 0 mm 4 mps 736 mmHg 36%
    12:00 +25°C° 0 mm 4 mps 736 mmHg 36%
    13:00 +26°C° 0.2 mm 4 mps 735 mmHg 37%
    14:00 +26°C° 0.2 mm 4 mps 735 mmHg 37%
    15:00 +27°C° 0.2 mm 4 mps 734 mmHg 37%
    16:00 +27°C° 0 mm 3 mps 734 mmHg 37%
    17:00 +27°C° 0 mm 2 mps 733 mmHg 38%
    18:00 +26°C° 0 mm 1 mps 733 mmHg 38%
    19:00 +25°C° 0 mm 1 mps 734 mmHg 39%
    20:00 +25°C° 0 mm 1 mps 734 mmHg 40%
    21:00 +24°C° 0 mm 1 mps 735 mmHg 41%
    22:00 +24°C° 0 mm 1 mps 735 mmHg 41%
    23:00 +24°C° 0 mm 1 mps 735 mmHg 41%

    23 February, Sunday

    Time Temperature Precipitation Wind Pressure Humidity
    00:00 +24°C° 0 mm 1 mps 734 mmHg 41%
    01:00 +23°C° 0.1 mm 1 mps 734 mmHg 42%
    02:00 +23°C° 0.1 mm 1 mps 734 mmHg 43%
    03:00 +23°C° 0.1 mm 1 mps 733 mmHg 44%
    04:00 +21°C° 0.1 mm 2 mps 733 mmHg 46%
    05:00 +21°C° 0.1 mm 2 mps 733 mmHg 47%
    06:00 +21°C° 0.1 mm 2 mps 733 mmHg 48%
    07:00 +23°C° 0.2 mm 2 mps 734 mmHg 47%
    08:00 +24°C° 0.2 mm 2 mps 735 mmHg 46%
    09:00 +25°C° 0.2 mm 2 mps 735 mmHg 45%
    10:00 +27°C° 0.1 mm 2 mps 735 mmHg 40%
    11:00 +29°C° 0.1 mm 3 mps 735 mmHg 34%
    12:00 +31°C° 0.1 mm 3 mps 735 mmHg 29%
    13:00 +33°C° 0 mm 3 mps 734 mmHg 27%
    14:00 +33°C° 0 mm 3 mps 733 mmHg 25%
    15:00 +34°C° 0 mm 2 mps 732 mmHg 23%
    16:00 +33°C° 0.2 mm 3 mps 732 mmHg 27%
    17:00 +30°C° 0.2 mm 4 mps 731 mmHg 32%
    18:00 +29°C° 0.2 mm 5 mps 731 mmHg 36%
    19:00 +27°C° 1.2 mm 4 mps 731 mmHg 41%
    20:00 +26°C° 1.2 mm 3 mps 732 mmHg 46%
    21:00 +24°C° 1.2 mm 2 mps 733 mmHg 50%
    22:00 +25°C° 0.3 mm 3 mps 733 mmHg 51%
    23:00 +25°C° 0.3 mm 3 mps 733 mmHg 52%

    24 February, Monday

    Time Temperature Precipitation Wind Pressure Humidity
    00:00 +25°C° 0.3 mm 4 mps 733 mmHg 52%
    01:00 +24°C° 0 mm 3 mps 732 mmHg 53%
    02:00 +24°C° 0 mm 2 mps 732 mmHg 53%
    03:00 +24°C° 0 mm 2 mps 731 mmHg 54%
    04:00 +23°C° 0 mm 1 mps 731 mmHg 55%
    05:00 +23°C° 0 mm 1 mps 731 mmHg 56%
    06:00 +22°C° 0 mm 1 mps 731 mmHg 58%
    07:00 +23°C° 0.1 mm 1 mps 732 mmHg 56%
    08:00 +24°C° 0.1 mm 2 mps 732 mmHg 54%
    09:00 +25°C° 0.1 mm 2 mps 733 mmHg 52%
    10:00 +26°C° 0 mm 2 mps 733 mmHg 47%
    11:00 +27°C° 0 mm 2 mps 733 mmHg 43%
    12:00 +29°C° 0 mm 2 mps 733 mmHg 38%
    13:00 +29°C° 0 mm 2 mps 732 mmHg 37%
    14:00 +29°C° 0 mm 2 mps 732 mmHg 36%
    15:00 +30°C° 0 mm 1 mps 731 mmHg 34%
    16:00 +27°C° 0.5 mm 3 mps 731 mmHg 44%
    17:00 +25°C° 0.5 mm 4 mps 730 mmHg 53%
    18:00 +22°C° 0.5 mm 6 mps 730 mmHg 63%
    19:00 +22°C° 0.2 mm 5 mps 730 mmHg 60%
    20:00 +22°C° 0.2 mm 4 mps 731 mmHg 57%
    21:00 +22°C° 0.2 mm 3 mps 731 mmHg 55%
    22:00 +22°C° 0 mm 3 mps 731 mmHg 55%
    23:00 +22°C° 0 mm 3 mps 731 mmHg 56%

    25 February, Tuesday

    Time Temperature Precipitation Wind Pressure Humidity
    00:00 +22°C° 0 mm 3 mps 732 mmHg 57%
    01:00 +23°C° 0 mm 2 mps 731 mmHg 60%
    02:00 +21°C° 0 mm 2 mps 731 mmHg 63%
    03:00 +22°C° 0 mm 1 mps 731 mmHg 67%
    04:00 +21°C° 0.2 mm 1 mps 731 mmHg 70%
    05:00 +19°C° 0.2 mm 2 mps 731 mmHg 74%
    06:00 +19°C° 0.2 mm 2 mps 731 mmHg 78%
    07:00 +19°C° 0.9 mm 3 mps 731 mmHg 77%
    08:00 +19°C° 0.9 mm 4 mps 732 mmHg 76%
    09:00 +19°C° 0.9 mm 4 mps 733 mmHg 75%
    10:00 +21°C° 0.1 mm 4 mps 733 mmHg 70%
    11:00 +22°C° 0.1 mm 4 mps 732 mmHg 65%
    12:00 +23°C° 0.1 mm 4 mps 732 mmHg 61%
    13:00 +25°C° 0 mm 4 mps 731 mmHg 55%
    14:00 +26°C° 0 mm 3 mps 730 mmHg 49%
    15:00 +28°C° 0 mm 3 mps 730 mmHg 43%
    16:00 +26°C° 1.1 mm 3 mps 730 mmHg 50%
    17:00 +25°C° 1.1 mm 3 mps 729 mmHg 56%
    18:00 +24°C° 1.1 mm 3 mps 729 mmHg 63%
    19:00 +22°C° 2.3 mm 3 mps 730 mmHg 66%
    20:00 +21°C° 2.3 mm 3 mps 731 mmHg 70%
    21:00 +21°C° 2.3 mm 3 mps 731 mmHg 73%
    22:00 +21°C° 0.1 mm 3 mps 731 mmHg 74%
    23:00 +20°C° 0.1 mm 2 mps 731 mmHg 74%
    Show more